Home > Weather > London > Past weeks

Flag for Canada Weather for the Past 2 Weeks in London, Ontario, Canada

Now
32 °F

Snow flurries. Low clouds.


Feels Like: 24 °F
Forecast: 30 / 33 °F
Wind: 10 mph from Southwest

Location: London Weather Station

Current Time: Feb 9, 2016 at 3:02:44 AM

Latest Report: Feb 9, 2016 at 2:00 AM


Visibility: 3 mi

Pressure: 29.50 "Hg

Humidity: 100%

Dew point: 32 °F

Location of LondonLocation

Historic Weather in London — Graph

°F

London Temperature Yesterday

Maximum temperature yesterday: 43 °F (at 2:00 PM)
Minimum temperature yesterday: 32 °F (at 7:00 PM)
Average temperature yesterday: 37 °F

High & Low Weather Summary for the Past Weeks

 TemperatureHumidityPressure
High57 °F (Feb 3, 1:00 PM)100% (Jan 27, 2:00 AM)30.35 "Hg (Jan 27, 2:00 AM)
Low10 °F (Jan 29, 11:00 PM)48% (Feb 3, 2:00 PM)29.50 "Hg (Feb 9, 2:00 AM)
Average33 °F82%29.91 "Hg
* Reported Jan 25 2:00 AM — Feb 9 2:00 AM, London, Weather by CustomWeather, © 2016

Note: Actual official high and low records may vary slightly from our data, if they occured in-between our weather recording intervals... More about our weather records

Advertising

London Weather History for the Previous 24 Hours

 ConditionsComfort  
Time TempWeatherWind HumidityBarometerVisibility
2:00 AM
Tue, Feb 9
32 °FSnow flurries. Low clouds.10 mph100%29.50 "Hg3 mi
1:00 AM32 °FSnow flurries. Low clouds.7 mph100%29.52 "Hg2 mi
12:00 AM32 °FSnow flurries. Low clouds.7 mph100%29.52 "Hg3 mi
11:00 PM
Mon, Feb 8
32 °FLight snow. Mostly cloudy.6 mph100%29.53 "Hg1 mi
10:00 PM32 °FLight snow. Mostly cloudy.2 mph100%29.54 "Hg1 mi
9:00 PM32 °FLight snow. Low clouds.2 mph100%29.55 "Hg1 mi
8:51 PM32 °FLight snow. Low clouds.2 mph100%29.55 "Hg1 mi
8:00 PM32 °FLight snow. Low clouds.3 mph100%29.57 "Hg1 mi
7:00 PM32 °FLight snow. Low clouds.6 mph100%29.57 "Hg1 mi
6:00 PM34 °FLight rain. Fog.10 mph100%29.57 "Hg2 mi
5:00 PM36 °FSprinkles. More clouds than sun.10 mph93%29.56 "Hg6 mi
4:00 PM36 °FSprinkles. More clouds than sun.12 mph93%29.56 "Hg8 mi
3:00 PM39 °FSprinkles. Overcast.14 mph75%29.55 "Hg10 mi
2:00 PM43 °FOvercast.13 mph66%29.55 "Hg10 mi
1:00 PM41 °FOvercast.9 mph81%29.57 "Hg10 mi
12:49 PM41 °FMore clouds than sun.10 mph76%29.57 "Hg10 mi
12:00 PM39 °FMostly cloudy.9 mph87%29.60 "Hg10 mi
11:47 AM39 °FMostly cloudy.7 mph93%29.61 "Hg10 mi
11:00 AM39 °FMostly cloudy.6 mph87%29.62 "Hg10 mi
10:50 AM39 °FMostly cloudy.5 mph87%29.62 "Hg10 mi
10:00 AM37 °FSprinkles. Overcast.10 mph87%29.63 "Hg8 mi
9:00 AM37 °FSprinkles. Fog.6 mph93%29.65 "Hg5 mi
8:00 AM36 °FSprinkles. Fog.7 mph100%29.65 "Hg5 mi
7:53 AM36 °FSprinkles. Fog.6 mph100%29.65 "Hg5 mi
7:00 AM36 °FSprinkles. Fog.7 mph100%29.65 "Hg5 mi
6:00 AM37 °FSprinkles. Fog.8 mph93%29.66 "Hg5 mi
5:00 AM37 °FSprinkles. Overcast.8 mph93%29.67 "Hg4 mi
4:00 AM37 °FSprinkles. Mostly cloudy.6 mph93%29.68 "Hg6 mi
3:00 AM39 °FSprinkles. Overcast.8 mph75%29.70 "Hg12 mi
Weather by CustomWeather, © 2016

See weather overviewHow to use our weather pages